Weather History for Queretaro Airport, Mexico

Change the Weather History Date:

Wednesday, September 12, 2012

  Actual Average Record
Temperature  
Mean Temperature 70 °F -  
Max Temperature 81 °F 76 °F 82 °F (1997)
Min Temperature 59 °F 56 °F 51 °F (2004)
Cooling Degree Days 5    
Growing Degree Days 20 (Base 50)    
Moisture  
Dew Point 55 °F    
Average Humidity 64    
Maximum Humidity 88    
Minimum Humidity 30    
Precipitation  
Precipitation 0.28 in - - ()
Sea Level Pressure  
Sea Level Pressure 30.17 in    
Wind  
Wind Speed 4 mph ()    
Max Wind Speed 14 mph    
Max Gust Speed -    
Visibility 6.0 miles    
Events Rain    
Averages and records for this station are not official NWS values.
T = Trace of Precipitation, MM = Missing Value Source: Averaged Metar Reports

Daily Weather History Graph

Daily Weather History Graph

Search for Another Location

Airport:

Trip Planner

Search our weather history database for the weather conditions in past years. The results will help you decide how hot, cold, wet, or windy it might be!

Date:

Astronomy

Sep. 12, 2012 Rise Set
Actual Time 7:27 AM CDT 7:45 PM CDT
Civil Twilight 7:05 AM CDT 8:08 PM CDT
Nautical Twilight 6:39 AM CDT 8:33 PM CDT
Astronomical Twilight 6:13 AM CDT 8:59 PM CDT
Moon 4:08 AM CDT (9/12) 5:16 PM CDT (9/12)
Length of Visible Light 13h 02m
Length of Day
12h 18m
Waning Crescent, 13% of the Moon is Illuminated
Sep 12
Waning Crescent
Sep 15
New
Sep 22
First Quarter
Sep 29
Full
Oct 8
Last Quarter

Hourly Weather History & Observations

Time (CDT) Temp. Dew Point Humidity Pressure Visibility Wind Dir Wind Speed Gust Speed Precip Events Conditions
12:40 AM 60.8 °F 53.6 °F 77% 30.33 in 7.0 mi SE 3.5 mph - N/A   Mostly Cloudy
12:45 AM 63 °F 54 °F 66% 29.80 in 6 mi East 2.2 mph - -   Scattered Clouds
1:45 AM 62.6 °F 57.2 °F 82% 30.33 in 7.0 mi East 4.6 mph - N/A   Overcast
2:45 AM 62.6 °F 57.2 °F 82% 30.32 in 7.0 mi ENE 4.6 mph - N/A   Overcast
3:45 AM 60 °F 53 °F 72% 29.86 in 6 mi East 2.2 mph - -   Scattered Clouds
3:45 AM 62.6 °F 57.2 °F 82% 30.30 in 7.0 mi ENE 3.5 mph - N/A   Overcast
4:45 AM 60.8 °F 55.4 °F 82% 30.29 in 6.0 mi Calm Calm - N/A   Overcast
5:45 AM 59.0 °F 51.8 °F 77% 30.28 in 6.0 mi Calm Calm - N/A   Overcast
6:40 AM 64 °F 56 °F 67% 29.86 in 3 mi ESE 4.5 mph - -   Mostly Cloudy
6:45 AM 60.8 °F 55.4 °F 82% 30.28 in 6.0 mi Calm Calm - N/A   Mostly Cloudy
7:45 AM 60.8 °F 57.2 °F 88% 30.30 in 6.0 mi North 3.5 mph - N/A   Overcast
8:45 AM 62.6 °F 57.2 °F 82% 30.32 in 6.0 mi Calm Calm - N/A   Overcast
9:40 AM 70 °F 57 °F 54% 29.93 in 3 mi NE 4.5 mph - -   Partly Cloudy
9:45 AM 68.0 °F 57.2 °F 68% 30.34 in 6.0 mi Calm Calm - N/A   Overcast
10:45 AM 69.8 °F 57.2 °F 64% 30.34 in 6.0 mi Calm Calm - N/A   Overcast
11:45 AM 73.4 °F 55.4 °F 53% 30.34 in 6.0 mi ENE 3.5 mph - N/A   Overcast
12:45 PM 75.2 °F 53.6 °F 47% 30.32 in 6.0 mi South 4.6 mph - N/A   Overcast
12:50 PM 78 °F 54 °F 33% 29.85 in 6 mi West 4.5 mph - -   Partly Cloudy
1:45 PM 75.2 °F 53.6 °F 47% 30.29 in 6.0 mi Calm Calm - N/A   Overcast
2:45 PM 75.2 °F 53.6 °F 47% 30.25 in 6.0 mi SSE 9.2 mph - N/A   Mostly Cloudy
3:45 PM 75.2 °F 53.6 °F 47% 30.22 in 7.0 mi ESE 9.2 mph - N/A   Mostly Cloudy
3:50 PM 79 °F 53 °F 30% 29.71 in 6 mi West 4.5 mph - -   Overcast
4:45 PM 75.2 °F 53.6 °F 47% 30.22 in 6.0 mi SSE 5.8 mph - N/A   Mostly Cloudy
5:45 PM 75.2 °F 53.6 °F 47% 30.22 in 6.0 mi SW 13.8 mph - N/A   Overcast
6:45 PM 69.8 °F 53.6 °F 56% 30.22 in 6.0 mi East 13.8 mph - N/A   Overcast
6:50 PM 71 °F 50 °F 36% 29.67 in 6 mi SW 8.9 mph - -   Partly Cloudy
7:45 PM 66.2 °F 53.6 °F 64% 30.24 in 6.0 mi East 11.5 mph - N/A   Overcast
8:45 PM 60.8 °F 53.6 °F 77% 30.26 in 7.0 mi NE 6.9 mph - N/A   Overcast
9:45 PM 62.6 °F 55.4 °F 77% 30.28 in 6.0 mi SE 13.8 mph - N/A   Mostly Cloudy
9:55 PM 64 °F 56 °F 67% 29.73 in 6 mi SE 11.2 mph - -   Overcast
10:45 PM 60.8 °F 53.6 °F 77% 30.32 in 6.0 mi ESE 6.9 mph - N/A   Mostly Cloudy
11:45 PM 59.0 °F 53.6 °F 82% 30.33 in 6.0 mi East 6.9 mph - N/A Rain Light Rain